[[{"header":{"parameterUnit":"m.s-1","parameterCategory":2,"la1":30.2992,"la2":30.254,"lo1":-89.0895,"lo2":-89.0443,"dy":0.0025,"dx":0.0025,"nx":19,"ny":19,"refTime":"2026-05-08T09:00:00:Z","depth":"0","parameterNumber":2,"parameterNumberName":"U-component_of_CURRENTS"},"data":[0,0,0,0.0015,0.0014,-0.0032,-0.0032,-0.0044,-0.0044,0,0,0,0,0,0,0,0,0,0,0,0.0035,0.0035,0.0015,0.0013,-0.0032,-0.0032,-0.0044,-0.0044,0,0,0,0,0,0,0,0,0,0,0,0.0035,0.0035,0.0034,0.0013,-0.0032,-0.0032,-0.0044,-0.002,0,0,0,0,0,0,0,0,0,0,0.0019,0.0035,0.0035,0.0034,0.0013,-0.0032,-0.0032,-0.0019,-0.0021,-0.0013,0,-0.0023,0,-0.0038,-0.0045,-0.0045,0,0,0,0.002,0.0037,0.0016,0.0034,0.0012,-0.0031,-0.0009,-0.0021,-0.0023,-0.0016,-0.0024,-0.0025,-0.0038,-0.0045,-0.0045,-0.008,-0.008,0,0,0.0022,0.0036,0.0018,0.0015,-0.0003,-0.0008,-0.0011,-0.0023,-0.0021,-0.0024,-0.0025,-0.0039,-0.0045,-0.0045,-0.008,-0.008,0,0,0,0.0025,0.0038,0.0017,0.0016,0.0001,-0.001,-0.0013,-0.002,-0.003,-0.0026,-0.0039,-0.0045,-0.0045,-0.0079,-0.008,-0.0078,0,0,0,0.0027,0.0039,0.0019,0.0028,0.0001,-0.0015,-0.001,-0.0028,-0.0031,-0.0039,-0.0045,-0.0045,-0.0079,-0.0079,-0.0077,-0.0072,0,0,0,0.0038,0.004,0.0032,0.0029,0.0004,-0.0015,-0.0025,-0.0029,-0.0039,-0.0045,-0.0045,-0.0079,-0.0079,-0.0076,-0.0071,-0.0067,0,0,0,0.0058,0.004,0.0032,0.0012,0.0005,-0.0029,-0.0025,-0.0042,-0.0048,-0.0045,-0.0079,-0.008,-0.0076,-0.0071,-0.0067,-0.0097,-0.0101,0,0,0.0044,0.0039,0.0026,0.0017,-0.0017,-0.0022,-0.0045,-0.0048,-0.0058,-0.007,-0.0071,-0.0077,-0.0071,-0.0067,-0.0144,-0.0147,0,0,0,0.0027,0.0018,0.0007,-0.0014,-0.0037,-0.0048,-0.0058,-0.0067,-0.0085,-0.0068,-0.0094,-0.0091,-0.0088,-0.0107,-0.0109,-0.0166,-0.0083,-0.0083,-0.0083,0.0029,0.0011,-0.0008,-0.003,-0.0044,-0.0066,-0.0077,-0.0092,-0.0093,-0.0109,-0.0102,-0.0115,-0.0137,-0.0138,-0.0198,-0.0119,-0.0119,-0.0119,-0.0119,0.0011,0.0008,-0.001,-0.0029,-0.0042,-0.0053,-0.0085,-0.0094,-0.0118,-0.0123,-0.012,-0.012,-0.0141,-0.0203,-0.0119,-0.0119,-0.0119,-0.0119,-0.0119,0.0025,0.0023,0.0011,-0.0006,-0.0016,-0.0034,-0.0058,-0.0089,-0.0111,-0.0119,-0.0133,-0.0133,-0.0176,-0.0113,-0.0113,-0.0112,-0.0112,-0.0112,-0.0112,0.0055,0.0039,0.0036,0.0018,0.0026,0.001,-0.0045,-0.0071,-0.0111,-0.0135,-0.0136,-0.0199,-0.0113,-0.0098,-0.0112,-0.0112,-0.0112,-0.0112,-0.0112,0.0082,0.0068,0.0069,0.0073,0.0075,0.0059,-0.0003,-0.0077,-0.0107,-0.0123,-0.0235,-0.0147,-0.0147,-0.0146,-0.0133,-0.0155,-0.0155,-0.0155,-0.0155,0.0104,0.0093,0.0095,0.0113,0.0124,0.0087,0.0024,-0.0059,-0.0182,-0.0262,-0.0285,-0.0308,-0.0304,-0.0315,-0.031,-0.0301,-0.0364,-0.0365,-0.0365,0.0119,0.0114,0.0126,0.0131,0.0155,0.0113,0.0039,-0.0046,-0.0253,-0.0378,-0.036,-0.0351,-0.0388,-0.0377,-0.0396,-0.0384,-0.0369,0,0]},{"header":{"parameterUnit":"m.s-1","parameterCategory":2,"la1":30.2992,"la2":30.254,"lo1":-89.0895,"lo2":-89.0443,"dy":0.0025,"dx":0.0025,"nx":19,"ny":19,"refTime":"2026-05-08T09:00:00:Z","depth":"0","parameterNumber":3,"parameterNumberName":"V-component_of_CURRENTS"},"data":[0,0,0,0.0199,0.0199,0.0211,0.0212,0.0249,0.0249,0,0,0,0,0,0,0,0,0,0,0,0.0194,0.0195,0.0198,0.0199,0.0211,0.0212,0.0249,0.0249,0,0,0,0,0,0,0,0,0,0,0,0.0194,0.0195,0.0195,0.0199,0.0211,0.0212,0.0249,0.0234,0,0,0,0,0,0,0,0,0,0,0.0219,0.021,0.0195,0.0195,0.0199,0.0211,0.0212,0.0233,0.0235,0.0249,0,0.0252,0,0.0252,0.0252,0.0253,0,0,0,0.0199,0.0208,0.0214,0.0195,0.0199,0.0211,0.0206,0.0234,0.0236,0.0252,0.0252,0.0253,0.0253,0.0253,0.0253,0.025,0.025,0,0,0.0198,0.0195,0.0213,0.0216,0.0203,0.0205,0.0206,0.0235,0.0237,0.0252,0.0254,0.0253,0.0253,0.0253,0.0251,0.025,0,0,0,0.0196,0.0195,0.0199,0.0214,0.0215,0.0206,0.0207,0.0236,0.0238,0.0255,0.0254,0.0253,0.0254,0.0251,0.025,0.0208,0,0,0,0.0196,0.0194,0.0199,0.0197,0.0215,0.0222,0.0207,0.0236,0.0239,0.0254,0.0253,0.0254,0.0251,0.0251,0.021,0.0198,0,0,0,0.0194,0.0193,0.0196,0.0197,0.0203,0.0222,0.0225,0.0236,0.0239,0.0253,0.0254,0.0252,0.0251,0.0212,0.0201,0.027,0,0,0,0.019,0.0181,0.0196,0.0182,0.0203,0.0184,0.0225,0.0224,0.0231,0.0254,0.0251,0.0251,0.0213,0.0203,0.027,0.0287,0.0287,0,0,0.0173,0.0179,0.0169,0.0182,0.0148,0.0183,0.0152,0.0188,0.0223,0.0245,0.0245,0.021,0.0201,0.027,0.0236,0.0238,0,0,0,0.0159,0.0149,0.0142,0.0128,0.0125,0.0113,0.0143,0.0162,0.0188,0.0225,0.0204,0.02,0.0245,0.0255,0.0256,0.0387,0.0247,0.0247,0.0247,0.0135,0.0122,0.0089,0.0072,0.006,0.0067,0.0077,0.0109,0.0144,0.015,0.0161,0.0175,0.018,0.0183,0.0315,0.0152,0.0152,0.0152,0.0151,0.009,0.007,0.0043,0.001,-0.0002,-0.0017,0.0011,0.0046,0.0111,0.0111,0.0159,0.0201,0.0182,0.0323,0.0149,0.0149,0.015,0.015,0.015,0.0077,0.0063,0.0038,-0.0021,-0.0057,-0.006,-0.0049,-0.0007,0.0082,0.0113,0.02,0.0201,0.0337,0.0164,0.0164,0.0165,0.0165,0.0165,0.0165,0.0082,0.0049,-0.0001,-0.0056,-0.0087,-0.0112,-0.0069,-0.0006,0.011,0.0166,0.0168,0.0351,0.018,0.0194,0.0168,0.0168,0.0167,0.0167,0.0167,0.0067,0.0046,-0.0023,-0.0066,-0.0145,-0.0153,-0.0106,0.0048,0.0145,0.0225,0.0402,0.022,0.0256,0.0255,0.0271,0.0268,0.0268,0.0268,0.0268,0.0058,0.004,-0.0058,-0.0131,-0.0187,-0.0182,-0.0055,0.011,0.0359,0.0486,0.0517,0.051,0.05,0.0551,0.0543,0.0565,0.0637,0.0638,0.0638,0.0029,0.0007,-0.0063,-0.0142,-0.0212,-0.0183,-0.0038,0.0196,0.0534,0.0668,0.07,0.0684,0.0686,0.066,0.0745,0.0724,0.0762,0,0]}],[{"header":{"parameterUnit":"m.s-1","parameterCategory":2,"la1":30.2992,"la2":30.254,"lo1":-89.0895,"lo2":-89.0443,"dy":0.0025,"dx":0.0025,"nx":19,"ny":19,"refTime":"2026-05-08T09:00:00:Z","depth":"2","parameterNumber":2,"parameterNumberName":"U-component_of_CURRENTS"},"data":[0,0,0,-0.0367,-0.0368,-0.038,-0.038,-0.0364,-0.0364,0,0,0,0,0,0,0,0,0,0,0,-0.0354,-0.0354,-0.0367,-0.0368,-0.038,-0.038,-0.0364,-0.0364,0,0,0,0,0,0,0,0,0,0,0,-0.0354,-0.0354,-0.0354,-0.0368,-0.038,-0.038,-0.0364,-0.036,0,0,0,0,0,0,0,0,0,0,-0.0351,-0.0342,-0.0354,-0.0354,-0.0368,-0.038,-0.038,-0.036,-0.0361,-0.0352,0,-0.0355,0,-0.0367,-0.0363,-0.0363,0,0,0,-0.0358,-0.0342,-0.0354,-0.0354,-0.0368,-0.038,-0.0372,-0.0361,-0.0361,-0.0353,-0.0355,-0.0355,-0.0367,-0.0363,-0.0363,-0.0404,-0.0404,0,0,-0.0357,-0.0347,-0.0354,-0.0354,-0.0372,-0.0371,-0.0372,-0.0361,-0.0356,-0.0355,-0.0355,-0.0366,-0.0363,-0.0363,-0.0403,-0.0404,0,0,0,-0.0362,-0.0347,-0.0359,-0.0354,-0.0363,-0.0372,-0.0373,-0.0356,-0.0363,-0.0355,-0.0366,-0.0363,-0.0363,-0.0402,-0.0403,-0.0416,0,0,0,-0.0361,-0.035,-0.0358,-0.0351,-0.0364,-0.0364,-0.0368,-0.0363,-0.0363,-0.0366,-0.0363,-0.0363,-0.0402,-0.0403,-0.0414,-0.0421,0,0,0,-0.0353,-0.0349,-0.0353,-0.0351,-0.0363,-0.0364,-0.0369,-0.0363,-0.037,-0.0363,-0.0362,-0.0401,-0.0403,-0.0413,-0.0419,-0.0419,0,0,0,-0.0339,-0.0352,-0.0352,-0.0371,-0.0363,-0.0399,-0.037,-0.038,-0.0377,-0.0363,-0.0402,-0.0403,-0.0413,-0.0418,-0.0418,-0.052,-0.0534,0,0,-0.0353,-0.0353,-0.0368,-0.0369,-0.0407,-0.0397,-0.043,-0.0404,-0.0395,-0.04,-0.0401,-0.0415,-0.0419,-0.0419,-0.0595,-0.0606,0,0,0,-0.0371,-0.0383,-0.0394,-0.0413,-0.0434,-0.0453,-0.0442,-0.0441,-0.0439,-0.0402,-0.0438,-0.0441,-0.0439,-0.05,-0.0509,-0.0409,-0.0409,-0.0409,-0.0409,-0.0381,-0.0399,-0.0425,-0.0452,-0.0473,-0.0488,-0.0496,-0.0495,-0.0474,-0.0483,-0.0468,-0.0501,-0.0568,-0.0576,-0.0487,-0.0487,-0.0487,-0.0487,-0.0487,-0.0412,-0.0426,-0.0448,-0.0472,-0.0493,-0.051,-0.0542,-0.0529,-0.053,-0.0518,-0.0515,-0.0533,-0.0587,-0.0489,-0.0488,-0.0488,-0.0488,-0.0488,-0.0488,-0.0413,-0.0421,-0.043,-0.0458,-0.0483,-0.0508,-0.0536,-0.0553,-0.0542,-0.0542,-0.0591,-0.0592,-0.0489,-0.0529,-0.053,-0.053,-0.053,-0.053,-0.053,-0.04,-0.0418,-0.0417,-0.0448,-0.0451,-0.0481,-0.053,-0.0554,-0.0611,-0.0622,-0.0623,-0.0515,-0.0514,-0.0492,-0.053,-0.053,-0.053,-0.053,-0.053,-0.0413,-0.0399,-0.04,-0.0402,-0.0422,-0.0471,-0.0528,-0.0637,-0.0663,-0.0711,-0.0671,-0.0668,-0.067,-0.0664,-0.0648,-0.0723,-0.0723,-0.0723,-0.0723,-0.0401,-0.0405,-0.0389,-0.0388,-0.0408,-0.0469,-0.0556,-0.0675,-0.0765,-0.0784,-0.078,-0.0796,-0.0789,-0.0796,-0.0787,-0.0772,-0.088,-0.0879,-0.0879,-0.041,-0.04,-0.0386,-0.0374,-0.0403,-0.0459,-0.0559,-0.068,-0.0787,-0.0878,-0.0727,-0.0749,-0.0765,-0.0755,-0.076,-0.0749,-0.0722,0,0]},{"header":{"parameterUnit":"m.s-1","parameterCategory":2,"la1":30.2992,"la2":30.254,"lo1":-89.0895,"lo2":-89.0443,"dy":0.0025,"dx":0.0025,"nx":19,"ny":19,"refTime":"2026-05-08T09:00:00:Z","depth":"2","parameterNumber":3,"parameterNumberName":"V-component_of_CURRENTS"},"data":[0,0,0,-0.0054,-0.0053,-0.0037,-0.0037,0.0007,0.0007,0,0,0,0,0,0,0,0,0,0,0,-0.0058,-0.0058,-0.0054,-0.0053,-0.0037,-0.0037,0.0007,0.0007,0,0,0,0,0,0,0,0,0,0,0,-0.0058,-0.0058,-0.0058,-0.0053,-0.0037,-0.0037,0.0007,-0.0011,0,0,0,0,0,0,0,0,0,0,-0.0029,-0.0042,-0.0058,-0.0058,-0.0053,-0.0037,-0.0037,-0.0012,-0.001,0.0005,0,0.0007,0,0.0007,0.0011,0.0011,0,0,0,-0.0051,-0.0044,-0.0035,-0.0058,-0.0053,-0.0037,-0.0044,-0.0011,-0.0008,0.0008,0.0007,0.0009,0.0008,0.0011,0.0011,0.0029,0.0028,0,0,-0.0052,-0.0057,-0.0037,-0.0034,-0.0049,-0.0044,-0.0043,-0.0009,-0.0009,0.0008,0.001,0.0009,0.0011,0.0012,0.0029,0.0028,0,0,0,-0.0056,-0.0058,-0.0051,-0.0035,-0.0035,-0.0044,-0.0043,-0.001,-0.0007,0.001,0.0009,0.0011,0.0012,0.0029,0.0029,-0.002,0,0,0,-0.0057,-0.0061,-0.0052,-0.0055,-0.0036,-0.0027,-0.0044,-0.0009,-0.0005,0.0009,0.0011,0.0013,0.0029,0.0029,-0.0018,-0.003,0,0,0,-0.0059,-0.0061,-0.0058,-0.0055,-0.0049,-0.0027,-0.0022,-0.0008,-0.0006,0.0011,0.0013,0.0029,0.0029,-0.0017,-0.0027,0.0027,0,0,0,-0.0066,-0.0077,-0.0059,-0.0077,-0.0049,-0.0069,-0.0022,-0.0024,-0.0015,0.0012,0.0029,0.0029,-0.0016,-0.0026,0.0027,0.0068,0.007,0,0,-0.0088,-0.008,-0.0094,-0.0077,-0.0113,-0.0071,-0.0098,-0.0055,-0.0013,0.0021,0.0021,-0.0019,-0.0027,0.0027,0.0045,0.0047,0,0,0,-0.0107,-0.0119,-0.0127,-0.0141,-0.0142,-0.0142,-0.0108,-0.0077,-0.0035,-0.0009,-0.0013,-0.0016,0.0019,0.0044,0.0046,0.0027,0.0027,0.0027,0.0027,-0.0148,-0.0155,-0.0193,-0.0204,-0.0214,-0.0187,-0.0166,-0.0113,-0.008,-0.006,-0.0053,-0.0041,-0.0018,-0.0015,-0.0053,-0.0053,-0.0054,-0.0054,-0.0054,-0.0203,-0.0228,-0.0244,-0.0279,-0.0274,-0.0282,-0.0223,-0.0177,-0.0098,-0.0088,-0.005,-0.0006,-0.0016,-0.0058,-0.0057,-0.0056,-0.0056,-0.0056,-0.0055,-0.0231,-0.0246,-0.0266,-0.0319,-0.0341,-0.0327,-0.0292,-0.0227,-0.0133,-0.0103,-0.0011,-0.001,-0.004,-0.0065,-0.0065,-0.0065,-0.0065,-0.0064,-0.0064,-0.0245,-0.0271,-0.0317,-0.0363,-0.0392,-0.0393,-0.0316,-0.0247,-0.0117,-0.0045,-0.0043,-0.0043,-0.0043,-0.0038,-0.0062,-0.0062,-0.0063,-0.0063,-0.0063,-0.0288,-0.0289,-0.0357,-0.0396,-0.0455,-0.0443,-0.0372,-0.02,-0.0097,-0.0017,0.0013,0.001,0.0048,0.0047,0.0055,0.0057,0.0057,0.0057,0.0057,-0.0307,-0.0319,-0.04,-0.0465,-0.0501,-0.0472,-0.0353,-0.0189,-0.0017,0.0073,0.0072,0.0054,0.005,0.0087,0.0085,0.0093,0.0106,0.0105,0.0105,-0.0347,-0.0362,-0.0422,-0.0481,-0.053,-0.0474,-0.0354,-0.0185,0.0039,0.0104,0.0048,0.0067,0.0037,0.0031,0.0086,0.0084,0.0097,0,0]}],[{"header":{"parameterUnit":"m.s-1","parameterCategory":2,"la1":30.2992,"la2":30.254,"lo1":-89.0895,"lo2":-89.0443,"dy":0.0025,"dx":0.0025,"nx":19,"ny":19,"refTime":"2026-05-08T09:00:00:Z","depth":"4","parameterNumber":2,"parameterNumberName":"U-component_of_CURRENTS"},"data":[0,0,0,-0.0724,-0.0725,-0.0794,-0.0795,-0.0818,-0.0818,0,0,0,0,0,0,0,0,0,0,0,-0.0705,-0.0705,-0.0724,-0.0725,-0.0794,-0.0795,-0.0818,-0.0818,0,0,0,0,0,0,0,0,0,0,0,-0.0704,-0.0705,-0.0706,-0.0726,-0.0794,-0.0795,-0.0818,-0.0782,0,0,0,0,0,0,0,0,0,0,-0.0723,-0.0717,-0.0705,-0.0706,-0.0726,-0.0794,-0.0795,-0.0781,-0.0784,-0.0769,0,-0.0789,0,-0.0802,-0.0818,-0.0819,0,0,0,-0.0724,-0.0714,-0.0731,-0.0706,-0.0727,-0.0794,-0.0763,-0.0783,-0.0787,-0.0773,-0.0789,-0.0791,-0.0802,-0.0819,-0.0819,-0.0837,-0.0837,0,0,-0.072,-0.0716,-0.0728,-0.0733,-0.0755,-0.0761,-0.0765,-0.0786,-0.0794,-0.0789,-0.0791,-0.0802,-0.0819,-0.0819,-0.0837,-0.0837,0,0,0,-0.071,-0.0713,-0.0731,-0.0732,-0.0748,-0.0763,-0.0768,-0.0793,-0.0799,-0.0792,-0.0803,-0.0819,-0.0819,-0.0836,-0.0837,-0.0978,0,0,0,-0.0708,-0.0708,-0.0729,-0.0727,-0.0749,-0.0781,-0.0774,-0.0798,-0.08,-0.0803,-0.0819,-0.0819,-0.0836,-0.0837,-0.0974,-0.1021,0,0,0,-0.07,-0.0707,-0.0718,-0.0727,-0.0757,-0.0781,-0.0789,-0.0799,-0.0806,-0.0819,-0.0819,-0.0836,-0.0837,-0.097,-0.1015,-0.0992,0,0,0,-0.0688,-0.0713,-0.0718,-0.0753,-0.0756,-0.0803,-0.0789,-0.0827,-0.0843,-0.0819,-0.0836,-0.0837,-0.0969,-0.101,-0.0989,-0.0818,0,0,0,-0.071,-0.0716,-0.0737,-0.0743,-0.0794,-0.0793,-0.084,-0.0856,-0.0839,-0.0824,-0.0825,-0.0975,-0.1014,-0.0991,-0.0842,0,0,0,0,-0.0737,-0.0754,-0.0771,-0.0804,-0.0832,-0.0869,-0.0874,-0.0887,-0.0927,-0.085,-0.0943,-0.0962,-0.0944,-0.0834,-0.0839,-0.0839,-0.0839,-0.0839,-0.0838,-0.075,-0.0773,-0.0813,-0.0845,-0.088,-0.092,-0.0964,-0.0975,-0.0958,-0.0999,-0.1056,-0.1104,-0.0994,-0.1034,-0.1035,-0.1035,-0.1036,-0.1036,-0.1037,-0.0778,-0.08,-0.0843,-0.0891,-0.0933,-0.0977,-0.1044,-0.1073,-0.1146,-0.1129,-0.1104,-0.0965,-0.105,-0.1047,-0.1045,-0.1044,-0.1043,-0.1042,-0.1041,-0.0773,-0.0789,-0.0826,-0.0894,-0.0972,-0.1028,-0.1108,-0.1223,-0.1236,-0.1296,-0.1101,-0.116,-0.1169,-0.1273,-0.1273,-0.1273,-0.1273,-0.1273,-0.1273,-0.0749,-0.0788,-0.0819,-0.0902,-0.095,-0.1043,-0.1187,-0.1215,-0.128,-0.1213,-0.1319,-0.1181,-0.1173,-0.1178,-0.1275,-0.1275,-0.1275,-0.1275,-0.1274,-0.0746,-0.0756,-0.0795,-0.0834,-0.0934,-0.0988,-0.1125,-0.1133,-0.1144,-0.1082,-0.1128,-0.1135,-0.1045,-0.104,-0.1037,-0.1097,-0.1095,-0.1093,0,-0.0729,-0.074,-0.0773,-0.0812,-0.0856,-0.0955,-0.0918,-0.0951,-0.0999,-0.0988,-0.1112,-0.1166,-0.1169,-0.1068,-0.106,-0.1055,0,0,0,-0.0726,-0.0732,-0.0741,-0.078,-0.0821,-0.0851,-0.0909,-0.0885,-0.1011,-0.0939,-0.1046,-0.1058,-0.1139,-0.1282,-0.1159,-0.115,-0.115,0,0]},{"header":{"parameterUnit":"m.s-1","parameterCategory":2,"la1":30.2992,"la2":30.254,"lo1":-89.0895,"lo2":-89.0443,"dy":0.0025,"dx":0.0025,"nx":19,"ny":19,"refTime":"2026-05-08T09:00:00:Z","depth":"4","parameterNumber":3,"parameterNumberName":"V-component_of_CURRENTS"},"data":[0,0,0,0.0098,0.0099,0.016,0.0161,0.0271,0.0272,0,0,0,0,0,0,0,0,0,0,0,0.0075,0.0075,0.0098,0.0099,0.016,0.0161,0.0271,0.0272,0,0,0,0,0,0,0,0,0,0,0,0.0075,0.0075,0.0076,0.0099,0.016,0.0161,0.0271,0.022,0,0,0,0,0,0,0,0,0,0,0.0157,0.0126,0.0075,0.0076,0.0099,0.016,0.0161,0.0217,0.0223,0.0248,0,0.0248,0,0.0259,0.0279,0.028,0,0,0,0.0112,0.0121,0.0137,0.0076,0.0099,0.016,0.0136,0.022,0.0227,0.0256,0.025,0.0254,0.026,0.028,0.028,0.0414,0.0415,0,0,0.0108,0.0092,0.0132,0.014,0.0104,0.0134,0.0138,0.0224,0.0227,0.025,0.0256,0.0262,0.0281,0.0281,0.0414,0.0415,0,0,0,0.009,0.009,0.0103,0.0136,0.0142,0.0136,0.014,0.0224,0.0227,0.0258,0.0264,0.0281,0.0283,0.0413,0.0414,0.0415,0,0,0,0.0088,0.0078,0.0101,0.0093,0.014,0.0179,0.0138,0.0221,0.0231,0.0263,0.0281,0.0284,0.0412,0.0414,0.0413,0.0371,0,0,0,0.0075,0.0077,0.008,0.0092,0.0113,0.0177,0.0187,0.0224,0.0235,0.028,0.0284,0.0412,0.0413,0.0412,0.0371,0.0338,0,0,0,0.0063,0.0057,0.0079,0.0081,0.0112,0.0161,0.0186,0.023,0.0266,0.0282,0.0412,0.0414,0.0411,0.037,0.0338,0.024,0,0,0,0.0048,0.0055,0.0058,0.0079,0.0104,0.0154,0.0212,0.0265,0.0305,0.0387,0.039,0.0414,0.0371,0.0338,0.034,0,0,0,0,0.0049,0.005,0.0062,0.0082,0.0125,0.0182,0.0246,0.0295,0.0383,0.0332,0.0448,0.042,0.0399,0.0346,0.0422,0.0422,0.0422,0.0421,0.0421,0.0012,0.0037,0.0047,0.0089,0.0128,0.0215,0.0272,0.0358,0.0399,0.0452,0.0448,0.0455,0.0406,0.0501,0.0501,0.0501,0.0501,0.0501,0.0501,-0.0008,-0.0004,0.0041,0.0058,0.0125,0.0184,0.0313,0.0363,0.0446,0.0489,0.047,0.0386,0.0502,0.0502,0.0502,0.0502,0.0502,0.0502,0.0502,-0.0034,-0.003,-0.0015,0.0019,0.0074,0.0164,0.0219,0.0328,0.0412,0.0425,0.0349,0.0436,0.0401,0.0416,0.0416,0.0415,0.0415,0.0415,0.0415,-0.0076,-0.0058,-0.0053,-0.0017,0.0008,0.0063,0.0168,0.0204,0.0294,0.031,0.0405,0.0425,0.0427,0.0397,0.041,0.0411,0.0412,0.0412,0.0412,-0.0112,-0.0106,-0.0096,-0.0082,-0.0037,-0.0004,0.0071,0.0101,0.0118,0.0127,0.025,0.0259,0.0231,0.0238,0.0199,0.0154,0.0153,0.0151,0,-0.0139,-0.0135,-0.0117,-0.01,-0.0082,-0.003,-0.0042,-0.0009,0.0069,0.0074,0.0141,0.0281,0.0287,0.0258,0.0262,0.0217,0,0,0,-0.0155,-0.0144,-0.0133,-0.0113,-0.0094,-0.0067,-0.0039,-0.0044,0.0065,0.0023,0.0119,0.0127,0.0265,0.0397,0.0374,0.0378,0.0325,0,0]}]]